"Pseudo-MPEC" for CEJJ692

Created 2026 Apr 17 11:35:08 UT using Find_Orb

Click here for an explanation of pseudo-MPECs

 
 Astrometry: 
     CEJJ692*1C2026 04 16.35148214 54 28.510+05 47 26.10   ~4G95 19.80GVNEOCPG96
     CEJJ692 1C2026 04 16.35662514 54 52.640+05 41 22.00   ~4G95 19.70GVNEOCPG96
     CEJJ692 1C2026 04 16.36177414 55 16.900+05 35 15.30   ~4G95       VNEOCPG96
     CEJJ692 1C2026 04 16.36692914 55 41.090+05 29 09.50   ~4G95 19.80GVNEOCPG96
     CEJJ692  C2026 04 16.38136014 56 45.909+05 11 28.83   ~4G9o 19.2 GWNEOCPH01
     CEJJ692 1C2026 04 16.38173314 56 51.320+05 11 29.26   ~4G9Z 19.17GVNEOCPI52
     CEJJ692 1C2026 04 16.38360714 57 00.238+05 09 14.26   ~4G9Z 19.29GVNEOCPI52
     CEJJ692  C2026 04 16.38475714 57 02.117+05 07 23.95   ~4G9o 18.9 GWNEOCPH01
     CEJJ692 1C2026 04 16.38551214 57 09.313+05 06 56.99   ~4G9Z 19.09GVNEOCPI52
     CEJJ692 1C2026 04 16.38742714 57 18.443+05 04 38.82   ~4G9Z 19.35GVNEOCPI52
     CEJJ692  C2026 04 16.39920614 58 11.287+04 49 58.23   ~4G9o 19.2 GWNEOCPH01
     CEJJ692  C2026 04 16.40282914 58 28.740+04 45 34.43   ~4G9o 18.9 GWNEOCPH01
     CEJJ692  C2026 04 16.42927015 00 50.058+04 12 27.99   ~4GEK 19.16GVNEOCPU74
     CEJJ692  C2026 04 16.43254515 01 06.171+04 08 24.22   ~4GEK 19.16GVNEOCPU74
     CEJJ692 1C2026 04 16.43286415 00 57.924+04 09 15.16   ~4GAo 18.53GVNEOCPI52
     CEJJ692 1C2026 04 16.43327815 00 59.958+04 08 44.45   ~4GAo 19.19GVNEOCPI52
     CEJJ692 1C2026 04 16.43368715 01 01.956+04 08 13.60   ~4GAo 18.98GVNEOCPI52
     CEJJ692 1C2026 04 16.43409915 01 03.976+04 07 43.36   ~4GAo 18.95GVNEOCPI52
     CEJJ692 KB2026 04 16.56736315 14 12.869+01 16 43.85   ~4GEZ 19.0 GXNEOCPQ06
     CEJJ692 KB2026 04 16.58389915 15 40.736+00 54 54.13   ~4GEZ 19.2 GXNEOCPQ06
     CEJJ692 KB2026 04 16.94347615 51 40.54 -07 35 45.7    ~4GNK 19.0 GVNEOCPL01
     CEJJ692 KB2026 04 16.94996415 52 20.42 -07 45 23.4    ~4GNK 19.3 GVNEOCPL01
     CEJJ692 KB2026 04 17.01949215 59 43.48 -09 28 29.9    ~4H0o 19.3 GVNEOCPI93
     CEJJ692 KB2026 04 17.02120515 59 54.23 -09 31 03.8    ~4H0o 19.4 GVNEOCPI93
     CEJJ692 KB2026 04 17.02317316 00 06.47 -09 34 00.1    ~4H0o 18.9 GVNEOCPI93
     CEJJ692 1C2026 04 17.09802016 07 45.628-11 26 51.70   ~4H7o 19.2 GXNEOCP033
     CEJJ692 1C2026 04 17.09828016 07 47.266-11 27 14.70   ~4H7o 18.7 GXNEOCP033
     CEJJ692 1C2026 04 17.09853016 07 48.846-11 27 36.60   ~4H7o 19.1 GXNEOCP033
     CEJJ692 1C2026 04 17.09878016 07 50.488-11 27 59.60   ~4H7o 18.7 GXNEOCP033

Station data:
(033) Karl Schwarzschild Observatory, Tautenburg  (N50.980139 E11.711240)
   Germany.  Observer B. Stecklum. 1.34-m f/3 Schmidt + CCD.
(G96) Mt. Lemmon Survey  (N32.442729 W110.788720)  US/Arizona.  Observer E.
   J. Christensen. Measurers T. Beuden, V. F. Carvajal, D. Fay, J. B.
   Fazekas, D. C. Fuls, A. R. Gibbs, A. D. Grauer, H. Gröller, J. K. Hogan,
   R. A. Kowalski, S. M. Larson, G. J. Leonard, D. Rankin, R. L. Seaman, F.
   C. Shelly, K. W. Wierzchoś. 1.5-m reflector + 10K CCD.
(H01) Magdalena Ridge Observatory, Socorro  (N33.984833 W107.189333)  US/New
   Mexico.  Observers W. H. Ryan, E. V. Ryan. Measurer W. H. Ryan. 2.4-m
   f/8.9 reflector + CCD.
(I52) Steward Observatory, Mt. Lemmon Station  (N32.442570 W110.788920)
   US/Arizona. Measurers T. Beuden, V. F. Carvajal, D. Fay, J. B. Fazekas, D.
   C. Fuls, A. R. Gibbs, A. D. Grauer, H. Gröller, J. K. Hogan, R. A.
   Kowalski, S. M. Larson, G. J. Leonard, D. Rankin, R. L. Seaman, F. C.
   Shelly, K. W. Wierzchoś. 1.0-m prime focus + CCD.
(I93) St Pardon de Conques  (N44.558670 W0.202960)  France.  Observers F.
   Losse, W. D'Anna. Measurer F. Losse. 0.40-m f/3.7 reflector + CCD.
(L01) Višnjan Observatory, Tičan  (N45.290897 E13.749300)  Croatia.
   Observers K. Korlević, L. Poropat. Measurer K. Korlevic. 1.0-m f/2.9
   reflector + CCD.
(Q06) Tarui Observatory, Tarui  (N35.394791 E136.495470)  Japan.  Observer H.
   Watanabe. 0.35-m f/1.9 Schmidt-Cassegrain + CMO.
(U74) JPL SynTrack Robotic Telescope 2, Auberry  (N37.070341 W119.412800)
   US/California.  Observers N. Saini, C. Zhai, R. Trahan, M. Zhan, M. Shao.
   0.36-m f/2.2 Schmidt.

Orbital elements:  CEJJ692
   Perihelion 2026 Apr 30.600154 +/- 0.00348 TT = 14:24:13.2 (JD 2461161.100154)
Epoch 2026 Apr 17.0 TT = JDT 2461147.5   Earth MOID: 0.0036      AutoNEOCP
M 354.674174990 +/- 0.0039          (J2000 ecliptic)
n   0.391600356 +/- 0.000238        Peri.  195.424621 +/- 0.0040
a   1.850293670 +/- 0.00075         Node    27.557356 +/- 0.00014
e   0.46110982 +/- 0.000219         Incl.    6.681037 +/- 0.0021
P   2.517/919.287d         H 28.73  G  0.15   U  7.1
q 0.997105085 +/- 6.21e-6    Q 2.703482255 +/- 0.0015
From 29 observations 2026 Apr. 16-17 (17.9 hr); mean residual 0".47
Residuals in arcseconds: 
260416 G96  .56-  .29+    260416 H01  .17+  .09+    260416 L01  .03+  .25+    
260416 G96  .53-  .03+    260416 H01  .25+  .05+    260416 L01  .12+  .03+    
260416 G96  .17+  1.2-    260416 U74  .96-  1.1+    260417 I93  .69-  .63+    
260416 G96  1.5-  .01-    260416 U74  .26+  .46-    260417 I93  .14+  .24+    
260416 H01  .70+  .41-    260416 I52  .00   .49+    260417 I93  .58-  .30+    
260416 I52  .15+  .22+    260416 I52  .10+  .46+    260417 033  .31+  .49-    
260416 I52  .21+  .14+    260416 I52  .01+  .08-    260417 033  .03+  .32-    
260416 H01  .93+  .57-    260416 I52  .02+  .23+    260417 033  .17-  .05+    
260416 I52  .28+  .17+    260416 Q06  .01+  .48-    260417 033  .53+  .67-    
260416 I52  .32+  .19+    260416 Q06  .70+  .09+    

Ephemerides (geocentric):
Date (UTC) HH   RA             Dec           delta  r     elong  mag " sig PA
---- --------  ------------   ------------  ------ ------ -----  --- --------
2026 04 17 12  16 54 20.859   -20 44 37.98  .00728 1.0088 132.4 19.8 .477  94
2026 04 17 13  16 59 16.743   -21 39 57.95  .00732 1.0087 131.2 19.9 .562 100
2026 04 17 14  17 04 12.956   -22 34 07.39  .00736 1.0086 130.1 19.9 .654 103
2026 04 17 15  17 09 09.226   -23 27 02.12  .00741 1.0085 128.9 20.0 .752 106
2026 04 17 16  17 14 05.280   -24 18 38.45  .00746 1.0085 127.7 20.0 .855 108
2026 04 17 17  17 19 00.846   -25 08 53.20  .00752 1.0084 126.6 20.1 .960 110
2026 04 17 18  17 23 55.655   -25 57 43.72  .00758 1.0083 125.4 20.1 1.07 111
2026 04 17 19  17 28 49.443   -26 45 07.83  .00765 1.0082 124.3 20.2 1.18 112
2026 04 17 20  17 33 41.950   -27 31 03.86  .00772 1.0082 123.2 20.2 1.29 113
2026 04 17 21  17 38 32.923   -28 15 30.61  .00780 1.0081 122.1 20.3 1.40 113
2026 04 17 22  17 43 22.118   -28 58 27.33  .00787 1.0080 121.0 20.3 1.51 113
2026 04 17 23  17 48 09.299   -29 39 53.72  .00796 1.0080 120.0 20.4 1.63 113
2026 04 18 00  17 52 54.242   -30 19 49.83  .00804 1.0079 118.9 20.4 1.74 114
2026 04 18 01  17 57 36.732   -30 58 16.13  .00813 1.0078 117.9 20.5 1.85 113
2026 04 18 02  18 02 16.568   -31 35 13.37  .00823 1.0077 116.9 20.6 1.96 113
2026 04 18 03  18 06 53.559   -32 10 42.66  .00832 1.0077 115.9 20.6 2.07 113
2026 04 18 04  18 11 27.528   -32 44 45.33  .00842 1.0076 115.0 20.7 2.17 113
2026 04 18 05  18 15 58.314   -33 17 22.96  .00853 1.0075 114.0 20.7 2.28 113
2026 04 18 06  18 20 25.765   -33 48 37.35  .00863 1.0075 113.1 20.8 2.38 112
2026 04 18 07  18 24 49.745   -34 18 30.46  .00874 1.0074 112.2 20.8 2.48 112
2026 04 18 08  18 29 10.133   -34 47 04.38  .00885 1.0073 111.4 20.9 2.58 112
2026 04 18 09  18 33 26.819   -35 14 21.35  .00897 1.0073 110.5 20.9 2.68 111
2026 04 18 10  18 37 39.707   -35 40 23.67  .00908 1.0072 109.7 21.0 2.77 111
2026 04 18 11  18 41 48.716   -36 05 13.73  .00920 1.0071 108.9 21.0 2.86 111
2026 04 18 12  18 45 53.775   -36 28 53.97  .00933 1.0071 108.1 21.1 2.95 110
2026 04 18 13  18 49 54.826   -36 51 26.83  .00945 1.0070 107.3 21.1 3.04 110
2026 04 18 14  18 53 51.823   -37 12 54.80  .00958 1.0069 106.6 21.2 3.12 109
2026 04 18 15  18 57 44.731   -37 33 20.34  .00970 1.0068 105.9 21.3 3.20 109
2026 04 18 16  19 01 33.526   -37 52 45.91  .00984 1.0068 105.2 21.3 3.28 108
2026 04 18 17  19 05 18.193   -38 11 13.93  .00997 1.0067 104.5 21.4 3.36 108
2026 04 18 18  19 08 58.727   -38 28 46.79  .01010 1.0066 103.8 21.4 3.43 108
2026 04 18 19  19 12 35.131   -38 45 26.82  .01024 1.0066 103.2 21.5 3.50 107
2026 04 18 20  19 16 07.416   -39 01 16.33  .01038 1.0065 102.5 21.5 3.57 107
2026 04 18 21  19 19 35.601   -39 16 17.55  .01052 1.0064 101.9 21.6 3.64 106
2026 04 18 22  19 22 59.713   -39 30 32.63  .01066 1.0064 101.3 21.6 3.70 106
2026 04 18 23  19 26 19.781   -39 44 03.69  .01080 1.0063 100.8 21.7 3.77 105
2026 04 19 00  19 29 35.845   -39 56 52.76  .01094 1.0062 100.2 21.7 3.83 105
2026 04 19 01  19 32 47.945   -40 09 01.80  .01109 1.0062  99.6 21.8 3.88 104
2026 04 19 02  19 35 56.129   -40 20 32.70  .01124 1.0061  99.1 21.8 3.94 104
2026 04 19 03  19 39 00.447   -40 31 27.29  .01138 1.0060  98.6 21.8 3.99 104
2026 04 19 04  19 42 00.953   -40 41 47.31  .01153 1.0060  98.1 21.9 4.05 103
2026 04 19 05  19 44 57.705   -40 51 34.44  .01168 1.0059  97.6 21.9 4.10 103
2026 04 19 06  19 47 50.761   -41 00 50.29  .01183 1.0059  97.1 22.0 4.15 102
2026 04 19 07  19 50 40.185   -41 09 36.39  .01199 1.0058  96.6 22.0 4.19 102
2026 04 19 08  19 53 26.040   -41 17 54.22  .01214 1.0057  96.2 22.1 4.24 102
2026 04 19 09  19 56 08.391   -41 25 45.17  .01230 1.0057  95.8 22.1 4.28 101
2026 04 19 10  19 58 47.305   -41 33 10.59  .01245 1.0056  95.3 22.2 4.33 101
2026 04 19 11  20 01 22.848   -41 40 11.76  .01261 1.0055  94.9 22.2 4.37 100